Regional Weather Roundup
Issued by NWS Newport/Morehead, NC

Current Version | Previous Version | Graphics & Text | Print | Product List | Glossary Off
Versions: 1 2 3 4 5 6 7 8 9 10 11 12 13 14 15 16 17 18 19 20 21 22 23 24 25 26 27 28 29 30 31 32 33 34 35 36 37 38 39 40 41 42 43 44 45 46 47 48 49 50

000
ASUS42 KMHX 262112
RWRMHX
WEATHER ROUNDUP FOR EASTERN NORTH CAROLINA
NATIONAL WEATHER SERVICE NEWPORT/MOREHEAD CITY NC
500 PM EDT SUN APR 26 2015

NOTE: "FAIR" INDICATES FEW OR NO CLOUDS BELOW 12,000 FEET
WITH NO SIGNIFICANT WEATHER AND/OR OBSTRUCTIONS TO VISIBILITY

NCZ015>017-031-032-045>047-102-103-262200-
NORTH COAST

CITY           SKY/WX    TMP DP  RH WIND       PRES   REMARKS
EDENTON        CLOUDY    55  46  71 N8        29.69S
ELIZABETH CITY CLOUDY    56  44  64 N13       29.68F
KITTY HAWK     CLOUDY    52  38  57 N7G20     29.67R
MANTEO         CLOUDY    53  39  59 N16       29.68R

$$

NCZ045>047-081-094-103-104-262200-
CENTRAL COAST

CITY           SKY/WX    TMP DP  RH WIND       PRES   REMARKS
FRISCO         CLOUDY    50  45  83 N14G24    29.65S
SWANQUARTER      N/A     52 N/A N/A VRB9G17   29.65S

$$

NCZ095-097-098-100-101-262200-
SOUTHERN COAST

CITY           SKY/WX    TMP DP  RH WIND       PRES   REMARKS
BEAUFORT       CLOUDY    54  50  86 N14       29.66S
CEDAR ISLAND     N/A     55 N/A N/A N18       29.71S
JACKSONVILLE   CLOUDY    57  49  74 N13       29.67R
PINEY ISLAND   CLOUDY   N/A N/A N/A N13       29.66S
WILMINGTON     PTSUNNY   61  52  72 N15       29.65F


$$

NCZ011>013-027>030-043-044-078>080-089-090>093-098-262200-
COASTAL PLAIN

CITY           SKY/WX    TMP DP  RH WIND       PRES   REMARKS
AHOSKIE        PTSUNNY   54  44  67 N7        29.71S
CLINTON        CLOUDY    55  50  82 N7        29.70R
ELIZABETHTOWN  CLOUDY    55  49  80 NE3       29.68S
GOLDSBORO      CLOUDY    55  49  80 N9        29.68S
GREENVILLE     CLOUDY    54  46  76 N10       29.72F
HAVELOCK       CLOUDY    55  48  77 N12       29.68S
KENANSVILLE    CLOUDY    53  47  81 N9        29.70S
KINSTON        CLOUDY    54  48  82 N7G16     29.70S
NEW BERN       CLOUDY    54  48  80 N9        29.69S
RICHLANDS      CLOUDY    55  46  71 N7        29.68S
ROCKY MOUNT    CLOUDY    54  46  74 N12       29.71S
WASHINGTON     CLOUDY    53  47  81 N7        29.69R
WHITEVILLE     PTSUNNY   60  52  74 N6        29.65S

$$

AMZ130-135-150-152-154-156-158-170-250-252-270-ANZ085-086-088-633-658-670-262200-
MARINE OBSERVATIONS

STATION/POSITION TIME  TEMP    WIND        PRES    WAVE   SWELL
                       AIR SEA DIR/SP/G            HT/PER HT/PER
                 (UTC) (F)     (DEG/KT/KT) (MB)    (FT/S) (FT/S)
CHESAPEAKE LIGHT 2100   51      20/  8/  8 1006.0
64 E VA BEACH    2050   53 57  360/ 17/ 21 1003.7    5/ 6   2/ 8
DUCK             2000   51 55   10/ 17/ 19 1003.6
2 E DUCK         2011      54                N/A     5/ 6
10 NE DUCK       NOT AVBL
OREGON INLET     2000   51 55  350/ 16/ 22 1004.3
HATTERAS CG      2006   54 63  360/ 19/ 24 1003.3
DIAMOND BUOY     2050   55 76  360/ 23/ 29 1002.9    8/ 8
CAPE LOOKOUT     2100   54     350/ 15/ 17 1004.0
BEAUFORT LAB     2006   54 62  360/ 15/ 17 1003.6
27 SE WRIGHTSVLE 2000   57 72   20/ 16/ 19   N/A
5 SE WRIGHTSVLE  2008   60 65  360/ 12/ 16 1003.7
225 S CAPE HAT   2050   72 71  280/ 12/ 14 1002.3    8/ 8   7/ 8
41 SE CHARLESTON 2050   73 72  230/ 16/ 17 1001.4    5/ 7   2/12

$$



USA.gov is the U.S. government's official web portal to all federal, state and local government web resources and services.